Content
SEND FEEDBACK

Daily
Averages
Monthly
Summary
United States of America

HILLSIDE, NEW JERSEY


Home > North America > United States > New Jersey
Elevation: 40 feet     Latitude: 40 40N     Longitude: 074 14W

WEATHER
 
SELECT A DAY
Number of Records: 187,578;   Date Range: 1/1/95 - 4/17/14
 
SHARE

PRINT THIS DATA

[ ← Previous Day ]
WEATHER ALMANAC - JUNE 14, 2013
[ Next Day → ]
[ °C ]   °F
Weather ElementAverageHighLow
Temperature62.1 °F71.1 °F (3:51 pm)55 °F (1:51 am)
Dewpoint53.1 °F57 °F (5:51 pm)48.9 °F (11:51 am)
Humidity73.9 %96 % (1:51 am)51 % (2:51 pm)
Barometer29.75 in29.89 in (11:51 pm)29.55 in (12:58 am)
Wind Speed12 mph20.7 mph (7:51 am)
Wind Gust28.8 mph (6:51 am)
Weather ElementAverage
Visibility9.3 mi
Wind DirectionSW (229.6 °)

Weather ElementTotal
Precipitation0.14 in
Heating Degree Days2 (Base 65)
Growing Degree Days13.1 (Base 50)
Averaged from 25 records on June 14, 2013
WEATHER CONDITIONS BREAKOUT
WIND DIRECTION BREAKOUT
WEATHER BY HOUR - JUNE 14, 2013
[ °C ]   °F
Local TimeTemperatureDewpointHumidityBarometerVisibilityWind DirectionWind SpeedGust SpeedPrecipitationEventsConditions
12:58 AM55.4 °F53.6 °F94 %29.55 in3.0 miNorth (10°)19.6 mph26.5 mph0.01 inRainLight Rain
1:51 AM55.0 °F54.0 °F96 %29.58 in5.0 miNNE (20°)19.6 mph27.6 mph0.07 inRainRain
2:51 AM55.0 °F53.1 °F93 %29.60 in5.0 miNorth (10°)18.4 mph23.0 mph0.05 inRainLight Rain
3:51 AM55.9 °F53.1 °F90 %29.62 in10.0 miNorth (360°)17.3 mph24.2 mph0.01 inRainLight Rain
4:51 AM55.0 °F51.1 °F86 %29.65 in10.0 miNorth (360°)17.3 mph27.6 mph0.00 inOvercast
5:51 AM55.9 °F51.1 °F84 %29.67 in10.0 miNorth (350°)18.4 mph24.2 mphOvercast
6:14 AM55.4 °F51.8 °F88 %29.68 in10.0 miNorth (360°)17.3 mph24.2 mphOvercast
6:51 AM55.0 °F51.1 °F86 %29.69 in10.0 miNorth (10°)19.6 mph28.8 mph0.00 inRainLight Rain
7:51 AM57.0 °F51.1 °F81 %29.70 in10.0 miNorth (360°)20.7 mph27.6 mph0.00 inMostly Cloudy
8:51 AM59.0 °F51.1 °F75 %29.73 in10.0 miNorth (350°)13.8 mph20.7 mphOvercast
9:51 AM60.1 °F51.1 °F72 %29.77 in9.0 miNNW (340°)15.0 mph21.9 mph0.00 inRainLight Rain
10:51 AM61.0 °F52.0 °F72 %29.79 in10.0 miNNW (340°)11.5 mph0.00 inMostly Cloudy
11:51 AM64.0 °F48.9 °F58 %29.81 in10.0 miNNW (330°)9.2 mph21.9 mphMostly Cloudy
12:51 PM66.9 °F50.0 °F54 %29.80 in10.0 miNNW (340°)9.2 mphMostly Cloudy
1:51 PM68.0 °F50.0 °F52 %29.80 in10.0 miCalmMostly Cloudy
2:51 PM70.0 °F51.1 °F51 %29.79 in10.0 miSSE (150°)4.6 mphMostly Cloudy
3:51 PM71.1 °F53.1 °F53 %29.78 in10.0 miSSE (160°)11.5 mphMostly Cloudy
4:51 PM71.1 °F55.9 °F59 %29.79 in10.0 miWest (280°)13.8 mph19.6 mph0.00 inMostly Cloudy
5:51 PM70.0 °F57.0 °F63 %29.81 in10.0 miWest (260°)10.4 mph0.00 inMostly Cloudy
6:51 PM68.0 °F57.0 °F68 %29.81 in10.0 miVariable6.9 mph0.00 inMostly Cloudy
7:51 PM66.9 °F55.0 °F66 %29.84 in10.0 miWNW (300°)6.9 mphMostly Cloudy
8:51 PM66.0 °F55.9 °F70 %29.85 in10.0 miWNW (290°)3.5 mphScattered Clouds
9:51 PM64.9 °F57.0 °F75 %29.87 in10.0 miWSW (250°)5.8 mphScattered Clouds
10:51 PM64.0 °F57.0 °F78 %29.88 in10.0 miWNW (300°)4.6 mphScattered Clouds
11:51 PM61.0 °F55.9 °F83 %29.89 in10.0 miSSW (210°)4.6 mphClear
Hourly data recorded from KEWR, located 3.25 miles away from Hillside, New Jersey







STORIES FROM OUR PARTNERS